Location: Auttagershofen
(48.1940°N, 10.0237°E)
Time: 18:19:18
(UTC+00:00)

Meteor 2-10 Rocket - Pass Details

Date: 18 January 2026
Orbit: 733 x 881 km, 81.2° (Epoch: 18 February)

Event Time Altitude Azimuth Distance (km) Brightness Sun altitude
Rises 04:10:17 0° 174° (S) 3,179 6.8 -28.4°
Reaches altitude 10° 04:12:37 10° 170° (S) 2,275 6.0 -28.0°
Maximum altitude 04:17:33 52° 95° (E) 964 4.3 -27.1°
Drops below altitude 10° 04:22:43 10° 20° (NNE) 2,376 6.2 -26.3°
Sets 04:25:12 0° 16° (NNE) 3,335 7.0 -25.9°
